Weather History for Crane Lake, MN

Change the Weather History Date:

Sunday, March 3, 2013

  Actual Average Record
Temperature  
Mean Temperature 15 °F -  
Max Temperature 39 °F 24 °F 39 °F (2013)
Min Temperature -9 °F 3 °F -36 °F (2014)
Degree Days  
Heating Degree Days 50    
Moisture  
Dew Point -4 °F    
Average Humidity 47    
Maximum Humidity 77    
Minimum Humidity 19    
Precipitation  
Precipitation 0.00 in - - ()
Sea Level Pressure  
Sea Level Pressure 30.09 in    
Wind  
Wind Speed 1 mph (SSE)    
Max Wind Speed 7 mph    
Max Gust Speed -    
Visibility 10 miles    
Events      
Averages and records for this station are not official NWS values.
T = Trace of Precipitation, MM = Missing Value Source: NWS Daily Summary

Daily Weather History Graph

Daily Weather History Graph

Search for Another Location

Airport:

Trip Planner

Search our weather history database for the weather conditions in past years. The results will help you decide how hot, cold, wet, or windy it might be!

Date:

Astronomy

Mar. 03, 2013 Rise Set
Actual Time 6:46 AM CST 5:57 PM CST
Civil Twilight 6:15 AM CST 6:28 PM CST
Nautical Twilight 5:39 AM CST 7:04 PM CST
Astronomical Twilight 5:03 AM CST 7:41 PM CST
Moon 12:06 AM CST (3/3) 9:31 AM CST (3/3)
Length of Visible Light 12h 13m
Length of Day
11h 10m
Waning Gibbous, 63% of the Moon is Illuminated
Mar 3
Waning Gibbous
Mar 4
Last Quarter
Mar 11
New
Mar 19
First Quarter
Mar 27
Full

Hourly Weather History & Observations

Time (CST) Temp. Windchill Dew Point Humidity Pressure Visibility Wind Dir Wind Speed Gust Speed Precip Events Conditions
12:09 AM -9.4 °F - -16.6 °F 71% 30.17 in 10.0 mi Calm Calm - N/A   Clear
12:30 AM -9.4 °F - -18.4 °F 65% 30.16 in 10.0 mi Calm Calm - N/A   Clear
12:49 AM -9.4 °F - -18.4 °F 65% 30.16 in 10.0 mi Calm Calm - N/A   Clear
1:29 AM -9.4 °F - -16.6 °F 71% 30.16 in 10.0 mi Calm Calm - N/A   Overcast
1:49 AM -9.4 °F - -16.6 °F 71% 30.15 in 10.0 mi Calm Calm - N/A   Overcast
2:09 AM -7.6 °F - -14.8 °F 71% 30.15 in 10.0 mi Calm Calm - N/A   Overcast
2:30 AM -5.8 °F - -14.8 °F 65% 30.15 in 10.0 mi Calm Calm - N/A   Overcast
2:49 AM -5.8 °F - -11.2 °F 77% 30.15 in 10.0 mi Calm Calm - N/A   Overcast
3:09 AM -4.0 °F - -11.2 °F 71% 30.14 in 10.0 mi Calm Calm - N/A   Overcast
3:29 AM -2.2 °F - -11.2 °F 66% 30.14 in 10.0 mi Calm Calm - N/A   Overcast
3:49 AM -2.2 °F - -9.4 °F 71% 30.14 in 10.0 mi Calm Calm - N/A   Overcast
4:09 AM -2.2 °F - -9.4 °F 71% 30.14 in 10.0 mi Calm Calm - N/A   Overcast
4:29 AM -0.4 °F - -9.4 °F 66% 30.14 in 10.0 mi Calm Calm - N/A   Overcast
5:09 AM -0.4 °F - -7.6 °F 72% 30.14 in 10.0 mi Calm Calm - N/A   Overcast
5:30 AM -0.4 °F - -9.4 °F 66% 30.14 in 10.0 mi Calm Calm - N/A   Overcast
5:49 AM -0.4 °F - -9.4 °F 66% 30.14 in 10.0 mi Calm Calm - N/A   Overcast
6:10 AM -2.2 °F - -11.2 °F 66% 30.14 in 10.0 mi Calm Calm - N/A   Mostly Cloudy
6:29 AM -5.8 °F - -14.8 °F 65% 30.14 in 10.0 mi Calm Calm - N/A   Scattered Clouds
6:49 AM -5.8 °F - -14.8 °F 65% 30.14 in 10.0 mi Calm Calm - N/A   Clear
7:09 AM -7.6 °F - -14.8 °F 71% 30.14 in 10.0 mi Calm Calm - N/A   Clear
7:29 AM -7.6 °F - -14.8 °F 71% 30.14 in 10.0 mi Calm Calm - N/A   Clear
7:50 AM -5.8 °F - -11.2 °F 77% 30.13 in 10.0 mi Calm Calm - N/A   Clear
8:09 AM -2.2 °F - -9.4 °F 71% 30.13 in 10.0 mi Calm Calm - N/A   Clear
8:29 AM -0.4 °F - -7.6 °F 72% 30.12 in 10.0 mi Calm Calm - N/A   Clear
8:49 AM 8.6 °F - 1.4 °F 73% 30.12 in 10.0 mi Calm Calm - N/A   Clear
9:10 AM 12.2 °F - -0.4 °F 57% 30.12 in 10.0 mi Calm Calm - N/A   Clear
9:29 AM 17.6 °F - 5.0 °F 58% 30.12 in 10.0 mi Calm Calm - N/A   Clear
9:49 AM 21.2 °F - 6.8 °F 54% 30.11 in 10.0 mi Calm Calm - N/A   Clear
10:09 AM 24.8 °F - 5.0 °F 43% 30.10 in 10.0 mi Calm Calm - N/A   Clear
10:29 AM 24.8 °F 20.5 °F 5.0 °F 43% 30.11 in 10.0 mi NW 3.5 mph - N/A   Clear
10:50 AM 28.4 °F 24.6 °F 10.4 °F 47% 30.10 in 10.0 mi SSE 3.5 mph - N/A   Clear
11:09 AM 32.0 °F - 5.0 °F 32% 30.09 in 10.0 mi Calm Calm - N/A   Clear
11:30 AM 33.8 °F 29.6 °F 1.4 °F 25% 30.09 in 10.0 mi South 4.6 mph - N/A   Clear
11:49 AM 35.6 °F - 1.4 °F 24% 30.08 in 10.0 mi Calm Calm - N/A   Clear
12:09 PM 35.6 °F - -0.4 °F 22% 30.08 in 10.0 mi Calm Calm - N/A   Clear
12:29 PM 35.6 °F - 1.4 °F 24% 30.07 in 10.0 mi Calm Calm - N/A   Clear
12:50 PM 37.4 °F 32.8 °F -2.2 °F 19% 30.06 in 10.0 mi SSW 5.8 mph - N/A   Clear
1:09 PM 35.6 °F 30.7 °F -0.4 °F 22% 30.06 in 10.0 mi SSW 5.8 mph - N/A   Clear
1:29 PM 35.6 °F 29.9 °F -2.2 °F 20% 30.05 in 10.0 mi South 6.9 mph - N/A   Clear
1:49 PM 35.6 °F 31.7 °F -2.2 °F 20% 30.05 in 10.0 mi South 4.6 mph - N/A   Clear
2:29 PM 39.2 °F 37.0 °F 1.4 °F 21% 30.03 in 10.0 mi ESE 3.5 mph - N/A   Clear
2:50 PM 39.2 °F 35.0 °F -0.4 °F 19% 30.04 in 10.0 mi NE 5.8 mph - N/A   Clear
3:29 PM 37.4 °F - -2.2 °F 19% 30.03 in 10.0 mi Calm Calm - N/A   Clear
3:49 PM 37.4 °F 34.9 °F -0.4 °F 20% 30.03 in 10.0 mi ESE 3.5 mph - N/A   Clear
4:09 PM 37.4 °F - -0.4 °F 20% 30.03 in 10.0 mi Calm Calm - N/A   Clear
4:29 PM 35.6 °F - 1.4 °F 24% 30.02 in 10.0 mi Calm Calm - N/A   Clear
4:49 PM 33.8 °F - -0.4 °F 23% 30.03 in 10.0 mi Calm Calm - N/A   Clear
5:09 PM 30.2 °F - -2.2 °F 25% 30.03 in 10.0 mi Calm Calm - N/A   Clear
5:29 PM 28.4 °F - -2.2 °F 27% 30.03 in 10.0 mi Calm Calm - N/A   Mostly Cloudy
5:49 PM 26.6 °F - -2.2 °F 29% 30.03 in 10.0 mi Calm Calm - N/A   Overcast
6:09 PM 26.6 °F - -2.2 °F 29% 30.03 in 10.0 mi Calm Calm - N/A   Overcast
6:30 PM 24.8 °F - -2.2 °F 31% 30.04 in 10.0 mi Calm Calm - N/A   Overcast
6:49 PM 24.8 °F - -2.2 °F 31% 30.04 in 10.0 mi Calm Calm - N/A   Overcast
7:09 PM 24.8 °F - -2.2 °F 31% 30.04 in 10.0 mi Calm Calm - N/A   Overcast
7:29 PM 24.8 °F - -0.4 °F 34% 30.05 in 10.0 mi Calm Calm - N/A   Overcast
7:50 PM 24.8 °F - -0.4 °F 34% 30.05 in 10.0 mi Calm Calm - N/A   Overcast
8:09 PM 24.8 °F - 1.4 °F 36% 30.06 in 10.0 mi Calm Calm - N/A   Overcast
8:29 PM 24.8 °F - 3.2 °F 40% 30.06 in 10.0 mi Calm Calm - N/A   Mostly Cloudy
8:49 PM 23.0 °F - 5.0 °F 46% 30.06 in 10.0 mi Calm Calm - N/A   Scattered Clouds
9:09 PM 23.0 °F 17.0 °F 6.8 °F 50% 30.06 in 10.0 mi SE 4.6 mph - N/A   Scattered Clouds
9:29 PM 21.2 °F 16.4 °F 5.0 °F 50% 30.06 in 10.0 mi SSE 3.5 mph - N/A   Overcast
9:49 PM 19.4 °F 12.8 °F 1.4 °F 46% 30.06 in 10.0 mi SE 4.6 mph - N/A   Overcast
10:09 PM 19.4 °F - -0.4 °F 42% 30.06 in 10.0 mi Calm Calm - N/A   Mostly Cloudy
10:29 PM 15.8 °F - -2.2 °F 45% 30.06 in 10.0 mi Calm Calm - N/A   Scattered Clouds
10:49 PM 14.0 °F - -2.2 °F 49% 30.07 in 10.0 mi Calm Calm - N/A   Scattered Clouds
11:09 PM 12.2 °F - -2.2 °F 53% 30.08 in 10.0 mi Calm Calm - N/A   Clear
11:29 PM 12.2 °F - -2.2 °F 53% 30.09 in 10.0 mi Calm Calm - N/A   Clear
11:49 PM 10.4 °F - -4.0 °F 52% 30.09 in 10.0 mi Calm Calm - N/A   Clear